FW5156 Weather Reports


Display with metric or nautical units.
time (UTC)temp
F
wind
direction
speed
MPH
gust
MPH
rain 1hr
in
rain 24hr
in
rain mn
in
humidity
%
barometer
mb
20260831040517 74 0.0 0.0 0.00 0.00 0.00 87 1018.6
20260831035537 74 0.0 0.0 0.00 0.00 0.00 87 1018.5
20260831034517 74 0.0 0.0 0.00 0.00 0.00 87 1018.4
20260831033517 74 0.0 0.0 0.00 0.00 0.00 87 1018.5
20260831032537 74 0.0 0.0 0.00 0.00 0.00 87 1018.5
20260831031517 74 0.0 0.0 0.00 0.00 0.00 86 1018.5
20260831030517 74 0.0 0.0 0.00 0.00 0.00 85 1018.7
20260831025517 74 0.0 0.0 0.00 0.00 0.00 85 1018.8
20260831024517 74 0.0 0.0 0.00 0.00 0.00 84 1018.7
20260831023517 75 0.0 0.0 0.00 0.00 0.00 84 1018.6
20260831022517 75 0.0 0.0 0.00 0.00 0.00 83 1018.7
20260831021517 75 0.0 0.0 0.00 0.00 0.00 83 1018.7
20260831020517 75 0.0 0.0 0.00 0.00 0.00 82 1018.5
20260831015517 75 0.0 0.0 0.00 0.00 0.00 82 1018.5
20260831014517 75 0.0 0.0 0.00 0.00 0.00 82 1018.4
20260831013517 76 0.0 0.0 0.00 0.00 0.00 82 1018.3
20260831012517 76 0.0 0.0 0.00 0.00 0.00 82 1018.1
20260831011517 76 0.0 0.0 0.00 0.00 0.00 81 1018.0
20260831010537 76 0.0 0.0 0.00 0.00 0.00 81 1018.0
20260831005537 76 0.0 0.0 0.00 0.00 0.00 81 1018.0
20260831004517 76 0.0 0.0 0.00 0.00 0.00 80 1017.9
20260831003537 76 0.0 0.0 0.00 0.00 0.00 79 1017.9
20260831002537 77 0.0 0.0 0.00 0.00 0.00 78 1017.9
20260831001537 77 0.0 0.0 0.00 0.00 0.00 78 1017.6
20260831000517 78 0.0 0.0 0.00 0.00 0.00 77 1017.7
20260830235537 79 0.0 0.0 0.00 0.00 0.00 76 1017.7
20260830234517 79 0.0 0.0 0.00 0.00 0.00 75 1017.8
20260830233517 80 0.0 0.0 0.00 0.00 0.00 75 1017.9
20260830231537 81 0.0 0.0 0.00 0.00 0.00 73 1017.9
20260830230517 81 0.0 0.0 0.00 0.00 0.00 72 1017.8
20260830225517 82 0.0 0.0 0.00 0.00 0.00 68 1017.7
20260830224517 82 0.0 0.0 0.00 0.00 0.00 68 1017.7
20260830223557 83 0.0 1.0 0.00 0.00 0.00 67 1017.8
20260830222517 83 0.0 0.0 0.00 0.00 0.00 66 1017.8
20260830221517 84 0.0 1.0 0.00 0.00 0.00 64 1017.7
20260830220517 84 0.0 3.0 0.00 0.00 0.00 63 1017.8
20260830215517 85 0.0 5.0 0.00 0.00 0.00 62 1017.8
20260830214517 86 225 1.0 6.0 0.00 0.00 0.00 62 1017.9
20260830213517 87 0.0 2.0 0.00 0.00 0.00 60 1017.9
20260830212537 88 0.0 5.0 0.00 0.00 0.00 57 1018.1
20260830211517 88 248 1.0 4.0 0.00 0.00 0.00 57 1018.1
20260830210517 88 0.0 4.0 0.00 0.00 0.00 57 1018.3
20260830205517 89 225 1.0 7.0 0.00 0.00 0.00 55 1018.4
20260830204517 89 248 1.0 5.0 0.00 0.00 0.00 56 1018.5
20260830203517 89 225 1.0 6.0 0.00 0.00 0.00 54 1018.5
20260830202517 89 203 1.0 5.0 0.00 0.00 0.00 58 1018.8
20260830201517 89 0.0 4.0 0.00 0.00 0.00 57 1019.0
20260830200517 88 0.0 0.0 0.00 0.00 0.00 59 1019.1
20260830195517 88 225 1.0 4.0 0.00 0.00 0.00 56 1019.2
20260830194517 88 0.0 3.0 0.00 0.00 0.00 55 1019.3
20260830193537 89 0.0 3.0 0.00 0.00 0.00 53 1019.5
20260830192517 89 0.0 4.0 0.00 0.00 0.00 56 1019.7
20260830191517 88 293 1.0 5.0 0.00 0.00 0.00 55 1019.6
20260830190517 88 0.0 4.0 0.00 0.00 0.00 59 1019.9
20260830185517 87 0.0 2.0 0.00 0.00 0.00 59 1019.9
20260830184517 88 0.0 4.0 0.00 0.00 0.00 56 1019.9
20260830183517 88 0.0 4.0 0.00 0.00 0.00 55 1020.1
20260830182517 88 0.0 1.0 0.00 0.00 0.00 58 1020.2
20260830181517 88 0.0 2.0 0.00 0.00 0.00 63 1020.4
20260830180517 87 0.0 3.0 0.00 0.00 0.00 61 1020.4
20260830175517 86 0.0 0.0 0.00 0.00 0.00 62 1020.6
20260830174517 86 293 1.0 6.0 0.00 0.00 0.00 60 1020.5
20260830173517 86 225 1.0 6.0 0.00 0.00 0.00 65 1020.7
20260830172517 85 0.0 3.0 0.00 0.00 0.00 64 1020.7
20260830171517 85 0.0 1.0 0.00 0.00 0.00 63 1021.0
20260830170517 84 0.0 0.0 0.00 0.00 0.00 66 1021.2
20260830165517 84 0.0 2.0 0.00 0.00 0.00 67 1021.3
20260830164537 84 0.0 0.0 0.00 0.00 0.00 66 1021.5
20260830163517 84 0.0 0.0 0.00 0.00 0.00 65 1021.4
20260830162537 84 0.0 0.0 0.00 0.00 0.00 64 1021.5
20260830161517 84 0.0 0.0 0.00 0.00 0.00 64 1021.5
20260830160517 84 0.0 2.0 0.00 0.00 0.00 62 1021.5
20260830155517 84 248 1.0 6.0 0.00 0.00 0.00 62 1021.3
20260830154517 83 0.0 3.0 0.00 0.00 0.00 64 1021.2
20260830153517 83 180 1.0 5.0 0.00 0.00 0.00 64 1021.1
20260830152517 82 0.0 3.0 0.00 0.00 0.00 68 1021.1
20260830151517 81 0.0 5.0 0.00 0.00 0.00 69 1020.9
20260830150517 79 0.0 4.0 0.00 0.00 0.00 71 1020.6
20260830145517 79 0.0 3.0 0.00 0.00 0.00 74 1020.5
20260830144517 77 0.0 1.0 0.00 0.00 0.00 75 1020.2
20260830143517 77 0.0 3.0 0.00 0.00 0.00 76 1020.2
20260830142517 76 0.0 0.0 0.00 0.00 0.00 78 1020.0
20260830141517 75 0.0 2.0 0.00 0.00 0.00 78 1019.8
20260830140537 74 225 1.0 4.0 0.00 0.00 0.00 78 1019.8
20260830135517 74 0.0 3.0 0.00 0.00 0.00 80 1019.8
20260830134517 73 0.0 0.0 0.00 0.00 0.00 80 1020.0
20260830133537 73 0.0 1.0 0.00 0.00 0.00 79 1020.0
20260830132517 73 0.0 1.0 0.00 0.00 0.00 81 1020.2
20260830131517 72 0.0 3.0 0.00 0.00 0.00 82 1020.2
20260830130517 71 0.0 5.0 0.00 0.00 0.00 84 1020.2
20260830125517 69 0.0 4.0 0.00 0.00 0.00 86 1020.1
20260830124517 68 0.0 0.0 0.00 0.00 0.00 88 1020.0
20260830123517 68 0.0 0.0 0.00 0.00 0.00 88 1019.8
20260830122517 68 0.0 0.0 0.00 0.00 0.00 88 1019.7
20260830121537 67 0.0 0.0 0.00 0.00 0.00 89 1019.7
20260830120517 67 0.0 0.0 0.00 0.00 0.00 89 1019.8
20260830115517 67 0.0 0.0 0.00 0.00 0.00 89 1019.7
20260830114517 67 0.0 0.0 0.00 0.00 0.00 89 1019.8
20260830113517 66 0.0 0.0 0.00 0.00 0.00 90 1019.8
20260830112517 66 0.0 0.0 0.00 0.00 0.00 90 1019.8
20260830111517 66 0.0 0.0 0.00 0.00 0.00 90 1019.6
20260830110537 66 0.0 0.0 0.00 0.00 0.00 90 1019.4
20260830105517 66 0.0 0.0 0.00 0.00 0.00 90 1019.0
20260830104517 65 0.0 0.0 0.00 0.00 0.00 90 1019.0
20260830103517 66 0.0 0.0 0.00 0.00 0.00 89 1018.9
20260830102517 66 0.0 0.0 0.00 0.00 0.00 89 1019.1
20260830101517 66 0.0 0.0 0.00 0.00 0.00 89 1019.2
20260830100537 66 0.0 0.0 0.00 0.00 0.00 89 1019.2
20260830095517 66 0.0 0.0 0.00 0.00 0.00 88 1019.3
20260830094537 66 0.0 0.0 0.00 0.00 0.00 88 1019.5
20260830093537 66 0.0 0.0 0.00 0.00 0.00 87 1019.4
20260830092517 66 0.0 0.0 0.00 0.00 0.00 87 1019.5
20260830091517 66 0.0 0.0 0.00 0.00 0.00 87 1019.6
20260830090517 66 0.0 0.0 0.00 0.00 0.00 87 1019.5
20260830085517 67 0.0 0.0 0.00 0.00 0.00 87 1019.4
20260830084517 67 0.0 0.0 0.00 0.00 0.00 87 1019.6
20260830083517 66 0.0 0.0 0.00 0.00 0.00 86 1019.6
20260830082517 66 0.0 0.0 0.00 0.00 0.00 86 1019.5
20260830081517 66 0.0 0.0 0.00 0.00 0.00 86 1019.6
20260830080517 66 0.0 0.0 0.00 0.00 0.00 86 1019.6
20260830075517 66 0.0 0.0 0.00 0.00 0.00 86 1019.8
20260830074517 67 0.0 0.0 0.00 0.00 0.00 86 1019.8
20260830073517 67 0.0 0.0 0.00 0.00 0.00 85 1019.8
20260830072537 67 0.0 0.0 0.00 0.00 0.00 85 1019.8
20260830071517 67 0.0 0.0 0.00 0.00 0.00 85 1020.1
20260830070517 66 0.0 0.0 0.00 0.00 0.00 86 1020.0
20260830065517 66 0.0 0.0 0.00 0.00 0.00 85 1019.9
20260830064518 67 0.0 0.0 0.00 0.00 0.00 84 1020.0
20260830063517 67 0.0 0.0 0.00 0.00 0.00 85 1020.4
20260830062517 67 0.0 0.0 0.00 0.00 0.00 84 1020.4
20260830061517 67 0.0 0.0 0.00 0.00 0.00 85 1020.5
20260830060517 67 0.0 0.0 0.00 0.00 0.00 85 1020.6
20260830055517 67 0.0 2.0 0.00 0.00 0.00 85 1020.7
20260830054517 68 0.0 0.0 0.00 0.00 0.00 84 1020.7
20260830053537 68 0.0 0.0 0.00 0.00 0.00 83 1020.6
20260830052517 68 0.0 1.0 0.00 0.00 0.00 85 1020.6
20260830051517 67 0.0 2.0 0.00 0.00 0.00 85 1020.5
20260830050517 67 0.0 0.0 0.00 0.00 0.00 86 1020.5
20260830045517 67 0.0 0.0 0.00 0.00 0.00 87 1020.3
20260830044517 67 0.0 0.0 0.00 0.00 0.00 87 1020.3
20260830043517 67 0.0 0.0 0.00 0.00 0.00 87 1020.5
20260830042517 67 0.0 0.0 0.00 0.00 0.00 87 1020.4
20260830041557 67 0.0 0.0 0.00 0.00 0.00 87 1020.4